Location: Peebles
(55.6412°N, 3.1714°W)
Time: 11:45:49
(UTC+01:00)

IRIDIUM 33 DEB - Pass Details

Date: 04 July 2022
Orbit: 580 x 634 km, 86.4° (Epoch: 16 August)

Event Time Altitude Azimuth Distance (km) Brightness Sun altitude
Rises 01:46:26 0° 2° (N) 2,817 ? -11.2°
Maximum altitude 01:52:22 23° 71° (ENE) 1,266 ? -11.1°
Drops below altitude 10° 01:55:45 10° 124° (SE) 1,915 ? -11.0°
Enters shadow 01:57:43 - 137° (SE) 2,597 ? -11.0°
